COSMOS 996

Satellite information

Favourite Embed

Satellite Type and Status

PAYLOADIN ORBIT

Key statistics

Satellite COSMOS 996 at a glance.

Uptime

17326

Days in orbit

Revolutions

≈ 13.8

Per day

Orbit

LEO

Low Earth Orbit

Inclination

82.9

Latest

Satellite identification and parameters

Extended collection of information and parameters for COSMOS 996.

Object identification

Identified? True

Debris? False

Object name: COSMOS 996

International designator: 1978-031A

Object number (NORAD): 10744

Object ID (CCSDS): 10744

Country: COMMONWEALTH OF INDEPENDENT STATES (CIS)

Current information (Y/N): Y

RCS size: LARGE

Orbital parameters

Period: 104.598 minutes

Inclination: 82.9283 deg

SMA: 7353.743 km

Apoapsis: 1003.463 km

Periapsis: 947.752 km

RAAN: 312.6364 deg

Eccentricy: 0.00378794

Argument of periapsis: 144.6535 deg

Mean anomaly: 327.8642 deg

Mean motion: 13.76702596 rev/day

Mean motion (dot): 0.00000086 rev/day2

B* drag term: 0.000071871389 1/REarth

Two-line elements (TLE)

Creation date: Sept. 3, 2025, 2:21 a.m.

Reference frame: TEME

Reference center: EARTH

Epoch: Sept. 2, 2025, 4:24 p.m. UTC

TLE line 0: 0 COSMOS 996

TLE line 1: 1 10744U 78031A 25245.68372906 .00000086 00000-0 71871-4 0 9996

TLE line 2: 2 10744 82.9283 312.6364 0037879 144.6535 327.8642 13.76702596382301

Live tracking on map

Real-time ground track for satellite COSMOS 996.

In-orbit conjunctions

A list of the most updated potential collisions computed for object COSMOS 996.

Target Orbit TCA Probability of collision Miss distance Type
COSMOS 1226 LEO 2025-08-26 09:50:12 0.001340814 54.0 (m) PAYLOAD
CZ-6A DEB LEO 2024-12-05 19:48:03 0.002726796 136.0 (m) DEBRIS

Associated space launch

Navigation satellite providing location information for the Tsiklon-B navigation system

COSMOS 996 was lifted into orbit during the mission ‘Kosmos-3M | Parus 14’, on board a Kosmos-3M space rocket.

The launch took place on March 28, 1978, 1:30 a.m. from 132/1 (132L).

For more information about the launch, click the button.

Launch to space Kosmos-3M | Parus 14
Kosmos-3M | Parus 14

Agency: N/A

Status: Launch Successful

Launch date: March 28, 1978, 1:30 a.m. UTC

Rocket: Kosmos-3M

Launch pad: 132/1 (132L)

Location: Plesetsk Cosmodrome, Russian Federation

...

Latest news about this satellite

There are no fresh news available about this satellite. Check back as we update our databases every day.


Newsletter sign-up

Weekly statistics, charts and insights to help you stay on top of the space industry.